• In Spain
  • List of Countries
  • For 7 days
  • Water Temperature
  • Satellite Maps
  • Weather Map
  • Weather Widgets
  • user-avatar
    Login

    Hourly Weather Encamp

    Today, 23 May, Wednesday

    Time Temperature Precipitation Wind Pressure Humidity
    00:00 +7°C° 0.1 mm 1 mps 624 mmHg 91%
    01:00 +7°C° 0 mm 1 mps 624 mmHg 91%
    02:00 +7°C° 0 mm 1 mps 624 mmHg 91%
    03:00 +7°C° 0 mm 1 mps 624 mmHg 91%
    04:00 +7°C° 0 mm 1 mps 624 mmHg 89%
    05:00 +8°C° 0 mm 1 mps 625 mmHg 87%
    06:00 +8°C° 0 mm 0 mps 625 mmHg 85%
    07:00 +10°C° 0.1 mm 1 mps 626 mmHg 78%
    08:00 +12°C° 0.1 mm 1 mps 626 mmHg 72%
    09:00 +14°C° 0.1 mm 1 mps 627 mmHg 65%
    10:00 +14°C° 0.3 mm 1 mps 627 mmHg 63%
    11:00 +15°C° 0.3 mm 2 mps 627 mmHg 62%
    12:00 +15°C° 0.3 mm 2 mps 627 mmHg 60%
    13:00 +15°C° 0.4 mm 2 mps 627 mmHg 60%
    14:00 +15°C° 0.4 mm 2 mps 627 mmHg 60%
    15:00 +16°C° 0.4 mm 2 mps 627 mmHg 60%
    16:00 +15°C° 0.6 mm 2 mps 627 mmHg 65%
    17:00 +14°C° 0.6 mm 2 mps 626 mmHg 71%
    18:00 +13°C° 0.6 mm 1 mps 626 mmHg 77%
    19:00 +12°C° 0.1 mm 1 mps 626 mmHg 81%
    20:00 +10°C° 0.1 mm 1 mps 626 mmHg 86%
    21:00 +9°C° 0.1 mm 1 mps 625 mmHg 90%
    22:00 +8°C° 0 mm 1 mps 625 mmHg 90%
    23:00 +8°C° 0 mm 1 mps 625 mmHg 90%

    Tomorrow, 24 May, Thursday

    Time Temperature Precipitation Wind Pressure Humidity
    00:00 +8°C° 0 mm 1 mps 625 mmHg 90%
    01:00 +8°C° 0 mm 1 mps 625 mmHg 89%
    02:00 +8°C° 0 mm 1 mps 624 mmHg 88%
    03:00 +8°C° 0 mm 1 mps 624 mmHg 86%
    04:00 +8°C° 0 mm 1 mps 625 mmHg 84%
    05:00 +9°C° 0 mm 1 mps 625 mmHg 82%
    06:00 +10°C° 0 mm 1 mps 625 mmHg 80%
    07:00 +12°C° 0 mm 1 mps 626 mmHg 71%
    08:00 +14°C° 0 mm 2 mps 627 mmHg 63%
    09:00 +16°C° 0 mm 2 mps 628 mmHg 54%
    10:00 +17°C° 0 mm 2 mps 628 mmHg 51%
    11:00 +18°C° 0 mm 3 mps 629 mmHg 49%
    12:00 +19°C° 0 mm 3 mps 629 mmHg 46%
    13:00 +19°C° 0.1 mm 3 mps 628 mmHg 47%
    14:00 +19°C° 0.1 mm 3 mps 628 mmHg 48%
    15:00 +19°C° 0.1 mm 3 mps 628 mmHg 49%
    16:00 +18°C° 0.2 mm 3 mps 627 mmHg 54%
    17:00 +16°C° 0.2 mm 2 mps 627 mmHg 60%
    18:00 +15°C° 0.2 mm 2 mps 627 mmHg 65%
    19:00 +14°C° 0 mm 2 mps 626 mmHg 69%
    20:00 +12°C° 0 mm 2 mps 626 mmHg 72%
    21:00 +10°C° 0 mm 1 mps 625 mmHg 76%
    22:00 +10°C° 0 mm 1 mps 625 mmHg 72%
    23:00 +8°C° 0 mm 2 mps 625 mmHg 68%

    Day after tomorrow, 25 May, Friday

    Time Temperature Precipitation Wind Pressure Humidity
    00:00 +8°C° 0 mm 2 mps 625 mmHg 64%
    01:00 +8°C° 0 mm 2 mps 624 mmHg 62%
    02:00 +8°C° 0 mm 2 mps 624 mmHg 60%
    03:00 +8°C° 0 mm 2 mps 624 mmHg 58%
    04:00 +9°C° 0 mm 2 mps 624 mmHg 58%
    05:00 +10°C° 0 mm 2 mps 625 mmHg 59%
    06:00 +10°C° 0 mm 2 mps 625 mmHg 59%
    07:00 +13°C° 0.2 mm 2 mps 626 mmHg 56%
    08:00 +14°C° 0.2 mm 3 mps 626 mmHg 53%
    09:00 +17°C° 0.2 mm 3 mps 627 mmHg 50%
    10:00 +18°C° 0.1 mm 4 mps 627 mmHg 47%
    11:00 +19°C° 0.1 mm 4 mps 627 mmHg 43%
    12:00 +20°C° 0.1 mm 5 mps 628 mmHg 39%
    13:00 +20°C° 0 mm 5 mps 627 mmHg 39%
    14:00 +20°C° 0 mm 5 mps 627 mmHg 40%
    15:00 +20°C° 0 mm 5 mps 627 mmHg 40%
    16:00 +19°C° 0 mm 4 mps 626 mmHg 45%
    17:00 +17°C° 0 mm 4 mps 625 mmHg 51%
    18:00 +16°C° 0 mm 3 mps 625 mmHg 56%
    19:00 +13°C° 0 mm 3 mps 624 mmHg 60%
    20:00 +12°C° 0 mm 2 mps 624 mmHg 63%
    21:00 +9°C° 0 mm 2 mps 623 mmHg 67%
    22:00 +9°C° 0 mm 2 mps 623 mmHg 67%
    23:00 +9°C° 0 mm 2 mps 623 mmHg 68%

    26 May, Saturday

    Time Temperature Precipitation Wind Pressure Humidity
    00:00 +8°C° 0 mm 2 mps 623 mmHg 68%
    01:00 +8°C° 0 mm 2 mps 623 mmHg 70%
    02:00 +8°C° 0 mm 2 mps 623 mmHg 71%
    03:00 +8°C° 0 mm 2 mps 623 mmHg 73%
    04:00 +9°C° 0 mm 2 mps 623 mmHg 71%
    05:00 +9°C° 0 mm 2 mps 624 mmHg 70%
    06:00 +10°C° 0 mm 2 mps 624 mmHg 68%
    07:00 +13°C° 0 mm 2 mps 625 mmHg 62%
    08:00 +14°C° 0 mm 3 mps 626 mmHg 55%
    09:00 +17°C° 0 mm 3 mps 627 mmHg 48%
    10:00 +18°C° 0 mm 4 mps 627 mmHg 45%
    11:00 +20°C° 0 mm 4 mps 627 mmHg 42%
    12:00 +21°C° 0 mm 4 mps 628 mmHg 39%
    13:00 +21°C° 0.1 mm 4 mps 627 mmHg 41%
    14:00 +21°C° 0.1 mm 4 mps 627 mmHg 43%
    15:00 +20°C° 0.1 mm 4 mps 627 mmHg 45%
    16:00 +19°C° 0.2 mm 4 mps 626 mmHg 52%
    17:00 +18°C° 0.2 mm 3 mps 626 mmHg 59%
    18:00 +16°C° 0.2 mm 3 mps 625 mmHg 67%
    19:00 +14°C° 0.1 mm 2 mps 625 mmHg 72%
    20:00 +13°C° 0.1 mm 2 mps 625 mmHg 78%
    21:00 +11°C° 0.1 mm 1 mps 624 mmHg 83%
    22:00 +10°C° 0 mm 1 mps 624 mmHg 80%
    23:00 +10°C° 0 mm 1 mps 624 mmHg 76%

    27 May, Sunday

    Time Temperature Precipitation Wind Pressure Humidity
    00:00 +10°C° 0 mm 1 mps 624 mmHg 73%
    01:00 +9°C° 0 mm 2 mps 624 mmHg 71%
    02:00 +8°C° 0 mm 2 mps 624 mmHg 68%
    03:00 +8°C° 0 mm 2 mps 624 mmHg 66%
    04:00 +9°C° 0 mm 2 mps 624 mmHg 65%
    05:00 +10°C° 0 mm 2 mps 625 mmHg 64%
    06:00 +12°C° 0 mm 2 mps 625 mmHg 63%
    07:00 +14°C° 0 mm 2 mps 626 mmHg 56%
    08:00 +16°C° 0 mm 2 mps 627 mmHg 50%
    09:00 +19°C° 0 mm 3 mps 628 mmHg 43%
    10:00 +19°C° 0.1 mm 3 mps 628 mmHg 46%
    11:00 +19°C° 0.1 mm 3 mps 628 mmHg 49%
    12:00 +20°C° 0.1 mm 4 mps 628 mmHg 52%
    13:00 +19°C° 0.4 mm 4 mps 627 mmHg 55%
    14:00 +19°C° 0.4 mm 4 mps 627 mmHg 58%
    15:00 +19°C° 0.4 mm 4 mps 627 mmHg 61%
    16:00 +18°C° 0.4 mm 4 mps 626 mmHg 65%
    17:00 +17°C° 0.4 mm 3 mps 626 mmHg 69%
    18:00 +16°C° 0.4 mm 3 mps 625 mmHg 73%
    19:00 +13°C° 0.5 mm 3 mps 625 mmHg 79%
    20:00 +12°C° 0.5 mm 3 mps 624 mmHg 85%
    21:00 +12°C° 0.5 mm 2 mps 624 mmHg 90%
    22:00 +12°C° 0.7 mm 2 mps 624 mmHg 90%
    23:00 +10°C° 0.7 mm 3 mps 624 mmHg 90%

    28 May, Monday

    Time Temperature Precipitation Wind Pressure Humidity
    00:00 +10°C° 0.7 mm 3 mps 624 mmHg 90%
    01:00 +10°C° 1.5 mm 3 mps 623 mmHg 90%
    02:00 +10°C° 1.5 mm 3 mps 623 mmHg 91%
    03:00 +10°C° 1.5 mm 2 mps 623 mmHg 91%
    04:00 +10°C° 1.4 mm 2 mps 623 mmHg 91%
    05:00 +10°C° 1.4 mm 2 mps 623 mmHg 90%
    06:00 +10°C° 1.4 mm 2 mps 623 mmHg 90%
    07:00 +12°C° 1 mm 2 mps 624 mmHg 85%
    08:00 +12°C° 1 mm 3 mps 624 mmHg 81%
    09:00 +13°C° 1 mm 3 mps 625 mmHg 77%
    10:00 +13°C° 1.1 mm 3 mps 625 mmHg 79%
    11:00 +13°C° 1.1 mm 3 mps 625 mmHg 80%
    12:00 +13°C° 1.1 mm 3 mps 625 mmHg 82%
    13:00 +13°C° 1.3 mm 3 mps 625 mmHg 80%
    14:00 +13°C° 1.3 mm 3 mps 625 mmHg 79%
    15:00 +15°C° 1.3 mm 2 mps 625 mmHg 77%
    16:00 +14°C° 0.8 mm 2 mps 624 mmHg 80%
    17:00 +13°C° 0.8 mm 2 mps 624 mmHg 84%
    18:00 +13°C° 0.8 mm 1 mps 624 mmHg 87%
    19:00 +11°C° 0.2 mm 1 mps 624 mmHg 90%
    20:00 +10°C° 0.2 mm 1 mps 624 mmHg 93%
    21:00 +8°C° 0.2 mm 0 mps 623 mmHg 96%
    22:00 +8°C° 0 mm 0 mps 623 mmHg 95%
    23:00 +8°C° 0 mm 0 mps 623 mmHg 94%
    Show more